User: anonymous   Login
Location: Ottawa
(45.4170°N, 75.7000°W)
Time: 01:47:42
(UTC-04:00)
Language:

Aureole 3 Rocket - Orbit

View from above orbital plane
View from above orbital plane
View from above satellite
View from above satellite

Ground track
Ground track

The orbit data is extracted from the following two-line orbital elements,

1 12849U 81094B   15090.13419278  .00002563  00000-0  23590-3 0  9994
2 12849 082.4909 067.1646 0909654 068.9600 300.6331 13.48926304632793
Epoch (UTC): 31 March 2015 03:13:14
Eccentricity: 0.0909654
inclination: 82.4909°
perigee height: 398 km
apogee height: 1754 km
right ascension of ascending node: 67.1646°
argument of perigee: 68.9600°
revolutions per day: 13.48926304
mean anomaly at epoch: 300.6331°
orbit number at epoch: 63279

The dashed part of the orbit path shows where the satellite is in the earth's shadow,  

DLR